Location: Lake Sonoma
(38.7200°N, 123.0564°W)
Time: 05:14:15
(UTC-08:00)

Amateur Radio Satellites - All Passes

Search period start: 23 November 2014 04:44
Search period end: 24 November 2014 04:44
Location: Lake Sonoma, 38.7200°N, 123.0564°W

Satellite Date Start Highest point End Downlink Frequencies (MHz)
Time Altitude Azimuth
SO-50 23 Nov 04:53:57 04:58:23 57° 304° (NW) 05:02:58 436.795
CUBESAT XI-V 23 Nov 05:03:04 05:05:49 16° 65° (ENE) 05:08:34 437.345
MOZHAYETS 4 23 Nov 05:06:19 05:10:30 35° 263° (W) 05:14:44
BEESAT 3 23 Nov 05:23:45 05:27:36 34° 53° (NE) 05:31:25 437.485
ISS 23 Nov 05:24:14 05:25:57 13° 18° (NNE) 05:27:41 145.825
BEESAT 2 23 Nov 05:36:26 05:40:27 42° 54° (NE) 05:44:25 435.950
CUTE-I 23 Nov 05:36:56 05:41:00 22° 94° (E) 05:45:02 437.470
PRISM 23 Nov 05:51:04 05:55:10 54° 259° (W) 05:59:19 437.425
STRAND 1 23 Nov 05:52:40 05:57:39 52° 72° (ENE) 06:02:39 437.568
AIST 2 23 Nov 05:56:47 06:00:45 35° 53° (NE) 06:04:40 435.215
AIST 1 23 Nov 06:00:12 06:01:17 11° 69° (ENE) 06:02:22
PCSat 23 Nov 06:04:54 06:10:17 65° 246° (WSW) 06:15:37 145.827
JAS-2 23 Nov 06:11:50 06:18:51 54° 290° (WNW) 06:25:03 435.910
AO-7 23 Nov 06:17:45 06:24:30 29° 303° (WNW) 06:31:15 29.400- 29.500
O/OREOS (USA 219) 23 Nov 06:17:55 06:22:18 55° 107° (ESE) 06:26:41 437.305
Cubesat XI-IV 23 Nov 06:33:37 06:38:58 79° 103° (ESE) 06:44:16 437.490
CUBESAT XI-V 23 Nov 06:38:11 06:42:47 54° 260° (W) 06:47:26 437.345
ISS 23 Nov 06:59:54 07:03:10 58° 36° (NE) 07:06:26 145.825
BEESAT 3 23 Nov 07:02:28 07:05:37 21° 249° (WSW) 07:08:43 437.485
BEESAT 2 23 Nov 07:15:41 07:18:24 17° 250° (WSW) 07:21:06 435.950
CUTE-I 23 Nov 07:16:13 07:21:14 43° 290° (WNW) 07:26:12 437.470
STRAND 1 23 Nov 07:33:45 07:37:06 17° 267° (W) 07:40:29 437.568
AIST 1 23 Nov 07:35:03 07:39:23 60° 266° (W) 07:43:39
AIST 2 23 Nov 07:35:54 07:39:10 21° 249° (WSW) 07:42:24 435.215
O/OREOS (USA 219) 23 Nov 07:59:32 08:02:03 15° 304° (NW) 08:04:34 437.305
HO-68 23 Nov 08:09:54 08:15:40 26° 95° (E) 08:21:23 435.675
Cubesat XI-IV 23 Nov 08:15:53 08:18:21 13° 300° (WNW) 08:20:48 437.490
GOMX 1 23 Nov 08:16:25 08:17:19 11° 91° (E) 08:18:13 467.674
GONETS M04 23 Nov 08:16:54 08:25:26 59° 91° (E) 08:34:03
CUTE 1.7 & AOD 2 23 Nov 08:17:18 08:20:17 18° 93° (E) 08:23:15 437.475
BRITE-PL 23 Nov 08:27:30 08:30:41 21° 95° (E) 08:33:52 437.365/2234.400
ISS 23 Nov 08:37:46 08:39:28 13° 231° (SW) 08:41:11 145.825
Oscar 11 23 Nov 08:45:09 08:46:41 12° 91° (E) 08:48:13 145.826/435.025
CINEMA 3 23 Nov 08:46:59 08:48:01 11° 91° (E) 08:49:03 145.822/145.860
SEEDS 23 Nov 08:53:25 08:57:27 40° 98° (E) 09:01:28 437.485
TIGRISAT 23 Nov 09:00:19 09:02:44 15° 65° (ENE) 09:05:09 435.000
QB50P2 23 Nov 09:00:59 09:01:51 11° 63° (ENE) 09:02:44 145.880/145.840
DX 1 23 Nov 09:02:55 09:05:44 17° 94° (E) 09:08:31 434.975-435.025
DUCHIFAT 1 23 Nov 09:07:58 09:09:50 13° 64° (ENE) 09:11:42 145.980
UNISAT 6 23 Nov 09:11:26 09:14:34 20° 68° (ENE) 09:17:42 437.425
AAUSAT CUBESAT 2 23 Nov 09:16:19 09:20:29 56° 100° (E) 09:24:38 437.432
CANX-2 23 Nov 09:16:59 09:21:17 82° 284° (WNW) 09:25:35 2200.000
DOVE 4 23 Nov 09:23:25 09:27:28 50° 100° (E) 09:31:36 437.250
NANOSAT C BR1 23 Nov 09:25:27 09:28:34 20° 68° (ENE) 09:31:41 145.865
ZACube-1 23 Nov 09:28:42 09:31:15 16° 93° (E) 09:33:49 437.345
COMPASS 1 23 Nov 09:29:26 09:33:42 88° 283° (WNW) 09:37:57 437.405
QB50P1 23 Nov 09:34:28 09:37:58 25° 69° (ENE) 09:41:28 145.935-145.965
HUMSAT D 23 Nov 09:36:16 09:36:56 10° 91° (E) 09:37:36 437.325/437.525
DELFI C3 23 Nov 09:36:52 09:40:45 39° 98° (E) 09:44:38 145.870
ANTELSAT 23 Nov 09:38:48 09:42:48 40° 72° (ENE) 09:46:48 437.575/2403.000
AISAT 23 Nov 09:44:00 09:46:31 15° 92° (E) 09:49:01 437.250
50 SAT 23 Nov 09:45:00 09:45:48 10° 91° (E) 09:46:35 437.505
GOMX 1 23 Nov 09:51:44 09:55:47 53° 286° (WNW) 09:59:53 467.674
CUTE 1.7 & AOD 2 23 Nov 09:52:24 09:56:18 35° 288° (WNW) 10:00:12 437.475
HO-68 23 Nov 09:56:42 10:03:41 57° 291° (WNW) 10:10:38 435.675
POPSAT HIP 1 23 Nov 09:58:10 10:02:15 46° 73° (ENE) 10:06:21 437.405
BUGSAT 1 23 Nov 10:00:13 10:04:13 40° 72° (ENE) 10:08:13 437.445
FUNcube-1 23 Nov 10:03:27 10:07:24 38° 98° (E) 10:11:24 145.935
UKube-1 23 Nov 10:05:14 10:09:36 86° 103° (ESE) 10:13:56 .
BRITE-PL 23 Nov 10:05:44 10:09:13 26° 290° (WNW) 10:12:42 437.365/2234.400
CUBEBUG 2 23 Nov 10:15:20 10:19:34 76° 102° (ESE) 10:23:53 437.445
GONETS M04 23 Nov 10:15:21 10:22:43 29° 290° (WNW) 10:30:11
Oscar 11 23 Nov 10:18:55 10:23:11 56° 286° (WNW) 10:27:26 145.826/435.025
CINEMA 3 23 Nov 10:21:26 10:25:32 56° 285° (WNW) 10:29:45 145.822/145.860
UWE-3 23 Nov 10:21:50 10:26:03 78° 102° (ESE) 10:30:22 435.000/436.395/437.385
POLYITAN 1 23 Nov 10:29:41 10:33:57 74° 258° (WSW) 10:38:14 437.675
SEEDS 23 Nov 10:30:16 10:32:57 17° 294° (WNW) 10:35:38 437.485
SHINDAISAT 23 Nov 10:30:47 10:32:19 41° 119° (ESE) 10:33:52 437.305
QB50P2 23 Nov 10:32:57 10:37:12 67° 259° (WSW) 10:41:27 145.880/145.840
TIGRISAT 23 Nov 10:35:02 10:39:07 44° 261° (W) 10:43:13 435.000
DX 1 23 Nov 10:38:04 10:42:07 39° 289° (WNW) 10:46:09 434.975-435.025
DUCHIFAT 1 23 Nov 10:41:03 10:45:14 54° 260° (W) 10:49:25 145.980
ESTCUBE 1 23 Nov 10:43:06 10:46:51 25° 95° (E) 10:50:35 437.505/2401.250
UNISAT 6 23 Nov 10:47:20 10:51:10 32° 263° (W) 10:55:00 437.425
AAUSAT CUBESAT 2 23 Nov 10:53:59 10:55:40 12° 296° (WNW) 10:57:22 437.432
VELOX 1 23 Nov 10:54:33 10:59:00 88° 283° (WNW) 11:03:24 145.980
NANOSAT C BR1 23 Nov 11:00:24 11:04:14 32° 263° (W) 11:08:05 145.865
DOVE 4 23 Nov 11:03:04 11:04:51 13° 295° (WNW) 11:06:39 437.250
ZACube-1 23 Nov 11:03:50 11:07:47 40° 287° (WNW) 11:11:46 437.345
HUMSAT D 23 Nov 11:09:00 11:13:05 57° 285° (WNW) 11:17:11 437.325/437.525
QB50P1 23 Nov 11:10:13 11:13:47 25° 264° (W) 11:17:20 145.935-145.965
DELFI C3 23 Nov 11:13:11 11:15:44 16° 293° (WNW) 11:18:18 145.870
ANTELSAT 23 Nov 11:17:14 11:19:47 15° 267° (W) 11:22:21 437.575/2403.000
50 SAT 23 Nov 11:17:28 11:21:25 54° 286° (WNW) 11:25:24 437.505
AISAT 23 Nov 11:19:09 11:23:23 45° 288° (WNW) 11:27:35 437.250
Oscar 19 23 Nov 11:33:46 11:36:17 14° 62° (ENE) 11:38:49 437.125/150
POPSAT HIP 1 23 Nov 11:36:13 11:38:24 14° 268° (W) 11:40:34 437.405
BUGSAT 1 23 Nov 11:37:17 11:39:53 16° 267° (W) 11:42:29 437.445
FUNcube-1 23 Nov 11:40:46 11:43:28 17° 293° (WNW) 11:46:12 145.935
TISAT 1 23 Nov 11:42:24 11:45:57 26° 96° (E) 11:49:28 437.305
CUBEBUG 1 23 Nov 11:42:53 11:47:15 72° 284° (WNW) 11:51:33 437.445
SPROUT 23 Nov 11:43:11 11:46:38 23° 95° (E) 11:50:04 437.525
SO-50 23 Nov 11:47:41 11:50:10 14° 41° (NE) 11:52:40 436.795
ESTCUBE 1 23 Nov 12:19:47 12:23:41 29° 291° (WNW) 12:27:33 437.505/2401.250
ITAMSAT 1 23 Nov 12:19:55 12:22:53 16° 62° (ENE) 12:25:51 435.822/435.867
Gurwin Techsat 1B 23 Nov 12:36:24 12:38:30 12° 60° (ENE) 12:40:36 435.225
YUBILEINY 23 Nov 12:40:02 12:46:44 24° 67° (ENE) 12:53:23 435.215
ITUPSAT 1 23 Nov 12:46:11 12:49:37 19° 94° (E) 12:53:01 437.325
CUSAT 1 23 Nov 12:49:38 12:51:58 22° 96° (E) 12:54:06 437.405
SWISSCUBE 23 Nov 12:57:44 13:01:52 28° 96° (E) 13:05:57 437.505
DANDE 23 Nov 13:02:39 13:05:21 28° 97° (E) 13:07:44 436.750
Oscar 19 23 Nov 13:09:55 13:15:00 71° 258° (WSW) 13:20:07 437.125/150
TISAT 1 23 Nov 13:18:18 13:21:41 24° 291° (WNW) 13:25:03 437.305
SPROUT 23 Nov 13:19:04 13:22:41 27° 290° (WNW) 13:26:16 437.525
HORYU 2 23 Nov 13:20:09 13:21:29 11° 62° (ENE) 13:22:49 437.375
SO-50 23 Nov 13:26:32 13:31:26 87° 59° (ENE) 13:36:20 436.795
BEESAT 23 Nov 13:29:01 13:33:44 56° 101° (E) 13:38:25 436.000
AUBIESAT-1 23 Nov 13:32:52 13:37:48 78° 107° (ESE) 13:42:38 437.475
AO-7 23 Nov 13:33:16 13:38:03 17° 50° (NE) 13:42:51 29.400- 29.500
M-CUBED/EXP-1 PRIME 23 Nov 13:36:04 13:41:02 90° 74° (ENE) 13:45:54 437.505
ITAMSAT 1 23 Nov 13:56:37 14:01:48 66° 258° (WSW) 14:07:00 435.822/435.867
STARS 23 Nov 14:06:56 14:09:58 18° 94° (E) 14:12:59 437.465
Gurwin Techsat 1B 23 Nov 14:12:23 14:17:42 84° 257° (WSW) 14:23:03 435.225
ITUPSAT 1 23 Nov 14:23:09 14:27:40 41° 289° (WNW) 14:32:09 437.325
VERMONT LUNAR 23 Nov 14:34:51 14:37:21 18° 147° (SSE) 14:39:51 437.305
SWISSCUBE 23 Nov 14:35:33 14:39:39 29° 292° (WNW) 14:43:43 437.505
YUBILEINY 23 Nov 14:35:39 14:44:18 70° 267° (W) 14:52:52 435.215
JAS-2 23 Nov 14:40:33 14:43:36 13° 53° (NE) 14:46:41 435.910
KKS-1 23 Nov 14:40:39 14:45:04 67° 102° (ESE) 14:49:28 437.445
HORYU 2 23 Nov 14:53:10 14:57:34 68° 258° (WSW) 15:02:00 437.375
RS-15 23 Nov 14:59:15 15:07:33 26° 103° (ESE) 15:15:46 29.354- 29.394
BEESAT 23 Nov 15:08:18 15:11:06 16° 297° (WNW) 15:13:53 436.000
AUBIESAT-1 23 Nov 15:09:45 15:12:07 14° 303° (WNW) 15:14:29 437.475
SO-50 23 Nov 15:10:58 15:11:16 10° 254° (WSW) 15:11:34 436.795
M-CUBED/EXP-1 PRIME 23 Nov 15:13:35 15:15:19 12° 304° (NW) 15:17:03 437.505
AO-7 23 Nov 15:21:15 15:29:30 77° 70° (ENE) 15:37:49 29.400- 29.500
MaSat-1 23 Nov 15:38:54 15:42:01 78° 114° (ESE) 15:44:52 437.345
STARS 23 Nov 15:42:32 15:46:34 37° 289° (WNW) 15:50:35 437.465
PHONESAT 2.4 23 Nov 15:49:52 15:53:22 40° 155° (SSE) 15:56:53 2401.200-2431.200
VERMONT LUNAR 23 Nov 16:11:51 16:15:28 70° 161° (SSE) 16:19:05 437.305
Cubesat XI-IV 23 Nov 16:17:30 16:20:19 15° 61° (ENE) 16:23:07 437.490
JAS-2 23 Nov 16:19:40 16:27:02 63° 71° (ENE) 16:34:48 435.910
KKS-1 23 Nov 16:19:42 16:21:08 11° 297° (WNW) 16:22:34 437.445
O/OREOS (USA 219) 23 Nov 16:29:04 16:33:34 85° 69° (ENE) 16:38:02 437.305
YUBILEINY 23 Nov 16:37:28 16:39:20 11° 286° (WNW) 16:41:11 435.215
CUTE-I 23 Nov 16:57:22 17:02:06 33° 68° (ENE) 17:06:50 437.470
MOZHAYETS 4 23 Nov 17:02:28 17:07:06 60° 100° (E) 17:11:41
RS-15 23 Nov 17:07:40 17:18:39 78° 302° (WNW) 17:29:40 29.354- 29.394
AO-7 23 Nov 17:17:10 17:23:00 21° 267° (W) 17:28:53 29.400- 29.500
PHONESAT 2.4 23 Nov 17:28:22 17:32:05 74° 351° (N) 17:35:49 2401.200-2431.200
PRISM 23 Nov 17:36:17 17:39:42 23° 96° (E) 17:43:05 437.425
VERMONT LUNAR 23 Nov 17:50:25 17:54:02 63° 358° (N) 17:57:39 437.305
Cubesat XI-IV 23 Nov 17:54:23 17:59:45 74° 257° (WSW) 18:05:08 437.490
STRAND 1 23 Nov 18:05:36 18:09:13 19° 93° (E) 18:12:48 437.568
JAS-2 23 Nov 18:06:24 18:12:27 26° 269° (W) 18:18:48 435.910
GONETS M04 23 Nov 18:29:29 18:36:41 27° 69° (ENE) 18:43:48
CUBESAT XI-V 23 Nov 18:36:35 18:41:01 41° 98° (E) 18:45:23 437.345
CUTE-I 23 Nov 18:37:28 18:42:07 30° 264° (W) 18:46:48 437.470
HO-68 23 Nov 18:38:48 18:43:20 18° 56° (NE) 18:47:52 435.675
MOZHAYETS 4 23 Nov 18:41:30 18:43:47 14° 296° (WNW) 18:46:04
PCSat 23 Nov 19:03:41 19:07:29 20° 105° (ESE) 19:11:17 145.827
PHONESAT 2.4 23 Nov 19:07:20 19:11:04 71° 8° (N) 19:14:46 2401.200-2431.200
CUTE 1.7 & AOD 2 23 Nov 19:11:02 19:12:35 12° 64° (ENE) 19:14:08 437.475
PRISM 23 Nov 19:11:37 19:15:12 27° 291° (WNW) 19:18:46 437.425
GOMX 1 23 Nov 19:23:04 19:25:23 14° 65° (ENE) 19:27:38 467.674
RS-15 23 Nov 19:24:29 19:33:06 26° 329° (NNW) 19:41:51 29.354- 29.394
VERMONT LUNAR 23 Nov 19:29:01 19:32:39 86° 195° (SSW) 19:36:17 437.305
BEESAT 2 23 Nov 19:33:51 19:34:59 11° 107° (ESE) 19:36:07 435.950
BRITE-PL 23 Nov 19:36:44 19:40:58 27° 70° (ENE) 19:44:57 437.365/2234.400
STRAND 1 23 Nov 19:43:44 19:48:37 46° 289° (WNW) 19:53:27 437.568
SEEDS 23 Nov 19:45:12 19:48:36 25° 69° (ENE) 19:52:02 437.485
DX 1 23 Nov 19:58:26 20:00:39 14° 64° (ENE) 20:02:53 434.975-435.025
AIST 1 23 Nov 20:02:56 20:07:19 86° 96° (E) 20:11:45
AAUSAT CUBESAT 2 23 Nov 20:06:48 20:10:30 32° 71° (ENE) 20:14:12 437.432
CANX-2 23 Nov 20:08:50 20:12:58 59° 75° (ENE) 20:17:08 2200.000
CUBESAT XI-V 23 Nov 20:14:53 20:18:07 19° 294° (WNW) 20:21:21 437.345
COMPASS 1 23 Nov 20:19:56 20:23:58 52° 74° (ENE) 20:28:03 437.405
HO-68 23 Nov 20:22:55 20:30:07 86° 254° (WSW) 20:37:21 435.675
DELFI C3 23 Nov 20:25:13 20:28:20 22° 69° (ENE) 20:31:28 145.870
GONETS M04 23 Nov 20:25:25 20:34:06 64° 268° (W) 20:42:42
ZACube-1 23 Nov 20:25:39 20:26:56 11° 64° (ENE) 20:28:13 437.345
DOVE 4 23 Nov 20:27:53 20:32:23 47° 74° (ENE) 20:36:39 437.250
AISAT 23 Nov 20:42:07 20:44:10 13° 63° (ENE) 20:46:12 437.250
CUTE 1.7 & AOD 2 23 Nov 20:43:52 20:48:00 57° 260° (W) 20:52:10 437.475
PCSat 23 Nov 20:45:10 20:50:26 53° 302° (WNW) 20:55:45 145.827
PHONESAT 2.4 23 Nov 20:46:15 20:49:49 45° 204° (SSW) 20:53:22 2401.200-2431.200
BEESAT 3 23 Nov 20:55:12 20:59:17 78° 301° (WNW) 21:03:27 437.485
GOMX 1 23 Nov 20:58:13 21:03:05 61° 259° (W) 21:07:39 467.674
FUNcube-1 23 Nov 20:58:53 21:02:25 26° 70° (ENE) 21:05:55 145.935
UKube-1 23 Nov 20:59:01 21:03:19 62° 74° (ENE) 21:07:37 .
VERMONT LUNAR 23 Nov 21:07:54 21:10:53 24° 211° (SSW) 21:13:51 437.305
BEESAT 2 23 Nov 21:08:38 21:12:42 61° 303° (WNW) 21:16:51 435.950
Oscar 11 23 Nov 21:12:13 21:16:31 87° 256° (WSW) 21:20:51 145.826/435.025
CUBEBUG 2 23 Nov 21:12:42 21:16:54 53° 74° (ENE) 21:21:01 437.445
BRITE-PL 23 Nov 21:14:47 21:19:22 32° 263° (W) 21:23:39 437.365/2234.400
UWE-3 23 Nov 21:18:06 21:22:16 53° 74° (ENE) 21:26:21 435.000/436.395/437.385
SEEDS 23 Nov 21:20:55 21:24:21 25° 265° (W) 21:27:50 437.485
CINEMA 3 23 Nov 21:21:58 21:26:27 73° 258° (WSW) 21:30:45 145.822/145.860
AIST 2 23 Nov 21:32:04 21:36:16 72° 302° (WNW) 21:40:33 435.215
DX 1 23 Nov 21:32:09 21:36:26 53° 259° (W) 21:40:45 434.975-435.025
ESTCUBE 1 23 Nov 21:42:11 21:45:35 21° 67° (ENE) 21:49:00 437.505/2401.250
AAUSAT CUBESAT 2 23 Nov 21:43:18 21:46:14 19° 266° (W) 21:49:11 437.432
RS-15 23 Nov 21:44:40 21:51:09 17° 6° (N) 21:57:45 29.354- 29.394
CANX-2 23 Nov 21:48:47 21:49:17 10° 270° (W) 21:49:47 2200.000
VELOX 1 23 Nov 21:51:02 21:55:30 71° 75° (ENE) 21:59:58 145.980
ZACube-1 23 Nov 21:58:37 22:02:49 60° 259° (W) 22:06:58 437.345
COMPASS 1 23 Nov 21:58:39 22:00:01 11° 269° (W) 22:01:24 437.405
HUMSAT D 23 Nov 21:59:57 22:04:06 83° 77° (ENE) 22:08:14 437.325/437.525
DELFI C3 23 Nov 22:00:02 22:03:29 27° 264° (W) 22:06:59 145.870
50 SAT 23 Nov 22:04:58 22:09:01 79° 77° (ENE) 22:13:03 437.505
DOVE 4 23 Nov 22:07:34 22:10:19 15° 267° (W) 22:13:00 437.250
HO-68 23 Nov 22:15:26 22:18:42 13° 271° (W) 22:21:58 435.675
AISAT 23 Nov 22:15:51 22:20:17 60° 259° (W) 22:24:43 437.250
POLYITAN 1 23 Nov 22:17:56 22:21:03 20° 94° (E) 22:24:10 437.675
QB50P2 23 Nov 22:20:50 22:24:06 21° 95° (E) 22:27:21 145.880/145.840
TIGRISAT 23 Nov 22:27:56 22:32:03 38° 98° (E) 22:36:15 435.000
DUCHIFAT 1 23 Nov 22:28:17 22:31:48 25° 96° (E) 22:35:18 145.980
TISAT 1 23 Nov 22:34:40 22:37:36 18° 67° (ENE) 22:40:31 437.305
FUNcube-1 23 Nov 22:35:21 22:38:44 23° 265° (W) 22:42:05 145.935
SPROUT 23 Nov 22:37:11 22:39:57 17° 66° (ENE) 22:42:43 437.525
CUBEBUG 1 23 Nov 22:37:40 22:42:06 81° 76° (ENE) 22:46:34 437.445
UKube-1 23 Nov 22:38:53 22:39:51 11° 269° (W) 22:40:49 .
UNISAT 6 23 Nov 22:40:04 22:44:25 54° 100° (E) 22:48:51 437.425
NANOSAT C BR1 23 Nov 22:46:54 22:50:55 42° 99° (E) 22:54:55 145.865
CUBEBUG 2 23 Nov 22:52:25 22:53:53 12° 268° (W) 22:55:22 437.445
QB50P1 23 Nov 22:56:22 23:00:31 55° 100° (E) 23:04:39 145.935-145.965
UWE-3 23 Nov 22:57:37 22:59:06 12° 269° (W) 23:00:33 435.000/436.395/437.385
ANTELSAT 23 Nov 23:08:30 23:12:55 72° 285° (WNW) 23:17:26 437.575/2403.000
ESTCUBE 1 23 Nov 23:18:04 23:22:13 35° 262° (W) 23:26:25 437.505/2401.250
BUGSAT 1 23 Nov 23:19:32 23:23:39 87° 103° (ESE) 23:27:42 437.445
POPSAT HIP 1 23 Nov 23:20:49 23:25:02 75° 284° (WNW) 23:29:14 437.405
CUSAT 1 23 Nov 23:26:57 23:30:53 28° 78° (ENE) 23:35:50 437.405
ISS 23 Nov 23:40:41 23:43:44 37° 135° (SE) 23:46:49 145.825
DANDE 23 Nov 23:42:20 23:46:15 32° 79° (E) 23:51:20 436.750
ITUPSAT 1 23 Nov 23:52:12 23:55:42 21° 66° (ENE) 23:59:13 437.325
POLYITAN 1 23 Nov 23:53:19 23:57:03 31° 289° (WNW) 00:00:46 437.675
QB50P2 23 Nov 23:56:22 00:00:01 29° 290° (WNW) 00:03:40 145.880/145.840
RS-15 23 Nov 23:58:26 00:08:24 35° 40° (NE) 00:18:39 29.354- 29.394
SWISSCUBE 24 Nov 00:03:23 00:07:29 29° 68° (ENE) 00:11:35 437.505
DUCHIFAT 1 24 Nov 00:04:10 00:07:34 24° 291° (WNW) 00:10:58 145.980
TIGRISAT 24 Nov 00:05:30 00:08:32 19° 293° (WNW) 00:11:37 435.000
TISAT 1 24 Nov 00:09:12 00:13:09 36° 262° (W) 00:17:07 437.305
SPROUT 24 Nov 00:11:37 00:15:42 41° 261° (W) 00:19:48 437.525
UNISAT 6 24 Nov 00:18:31 00:20:47 14° 295° (WNW) 00:23:03 437.425
AUBIESAT-1 24 Nov 00:21:25 00:25:20 81° 71° (ENE) 00:29:41 437.475
NANOSAT C BR1 24 Nov 00:23:58 00:26:27 16° 294° (WNW) 00:28:56 145.865
M-CUBED/EXP-1 PRIME 24 Nov 00:25:02 00:28:56 83° 253° (WSW) 00:33:16 437.505
QB50P1 24 Nov 00:34:14 00:35:56 12° 296° (WNW) 00:37:37 145.935-145.965
BEESAT 24 Nov 00:34:18 00:38:57 55° 73° (ENE) 00:43:39 436.000
STARS 24 Nov 01:03:56 01:06:25 15° 65° (ENE) 01:08:54 437.465
CUSAT 1 24 Nov 01:09:52 01:13:55 30° 264° (W) 01:19:05 437.405
ISS 24 Nov 01:17:39 01:20:27 25° 332° (NNW) 01:23:15 145.825
MaSat-1 24 Nov 01:19:09 01:21:28 86° 243° (WSW) 01:23:52 437.345
Oscar 19 24 Nov 01:22:53 01:27:51 45° 99° (E) 01:32:47 437.125/150
DANDE 24 Nov 01:26:00 01:29:40 24° 265° (W) 01:34:14 436.750
ITUPSAT 1 24 Nov 01:28:46 01:33:17 41° 261° (W) 01:37:51 437.325
KKS-1 24 Nov 01:37:40 01:41:59 51° 73° (ENE) 01:46:18 437.445
YUBILEINY 24 Nov 01:39:45 01:46:52 29° 83° (E) 01:53:57 435.215
SWISSCUBE 24 Nov 01:41:09 01:45:15 28° 264° (W) 01:49:24 437.505
JUGNU 24 Nov 01:55:35 01:57:34 12° 178° (S) 01:59:33 437.505
RS-15 24 Nov 02:10:35 02:21:49 76° 244° (WSW) 02:33:34 29.354- 29.394
ITAMSAT 1 24 Nov 02:10:57 02:15:59 49° 100° (E) 02:20:58 435.822/435.867
BEESAT 24 Nov 02:14:32 02:17:07 14° 268° (W) 02:19:43 436.000
Gurwin Techsat 1B 24 Nov 02:30:10 02:35:14 43° 99° (E) 02:40:15 435.225
STARS 24 Nov 02:38:13 02:42:29 49° 260° (W) 02:46:46 437.465
HORYU 2 24 Nov 02:46:38 02:50:23 25° 96° (E) 02:54:06 437.375
Oscar 19 24 Nov 03:03:03 03:06:50 21° 295° (WNW) 03:10:37 437.125/150
KKS-1 24 Nov 03:16:42 03:18:54 14° 268° (W) 03:21:07 437.445
AO-7 24 Nov 03:25:11 03:32:02 27° 95° (E) 03:38:50 29.400- 29.500
YUBILEINY 24 Nov 03:34:24 03:43:02 59° 281° (WNW) 03:51:42 435.215
SO-50 24 Nov 03:40:23 03:44:30 37° 114° (ESE) 03:48:46 436.795
SRMSAT 24 Nov 03:50:19 03:52:23 12° 181° (S) 03:54:27 437.500
ITAMSAT 1 24 Nov 03:51:26 03:55:04 20° 296° (WNW) 03:58:41 435.822/435.867
PCSat 24 Nov 03:52:28 03:55:32 15° 44° (NE) 03:58:36 145.827
MOZHAYETS 4 24 Nov 04:03:14 04:07:38 48° 73° (ENE) 04:12:04
Gurwin Techsat 1B 24 Nov 04:10:49 04:14:53 23° 295° (WNW) 04:18:56 435.225
HORYU 2 24 Nov 04:23:11 04:26:59 28° 291° (WNW) 04:30:48 437.375
RS-15 24 Nov 04:26:27 04:32:19 16° 262° (W) 04:38:19 29.354- 29.394
PRISM 24 Nov 04:26:59 04:29:33 16° 65° (ENE) 04:32:07 437.425
ISS 24 Nov 04:35:02 04:35:56 11° 12° (NNE) 04:36:50 145.825
